Olivia, MN

2:22 AM CDT on April 28, 2017 (GMT -0500)
Olivia Regional

Weather History for KOVL - May, 2013

Change the Weather History Date:

Friday, May 24, 2013

  Actual Average (KRWF) Record (KRWF)
Temperature  
Mean Temperature 55 °F -  
Max Temperature 69 °F 71 °F 89 °F (1977)
Min Temperature 41 °F 51 °F 35 °F (2002)
Degree Days  
Heating Degree Days 10    
Growing Degree Days 5 (Base 50)    
Moisture  
Dew Point 39 °F    
Average Humidity 54    
Maximum Humidity 82    
Minimum Humidity 28    
Precipitation  
Precipitation 0.08 in - - ()
Sea Level Pressure  
Sea Level Pressure 30.25 in    
Wind  
Wind Speed 6 mph (SE)    
Max Wind Speed 21 mph    
Max Gust Speed 26 mph    
Visibility 10 miles    
Events Rain , Thunderstorm    
Averages and records for this station are not official NWS values.
T = Trace of Precipitation, MM = Missing Value Source: NWS Daily Summary

Daily Weather History Graph

Daily Weather History Graph

Search for Another Location

Airport or City:

Trip Planner

Search our weather history database for the weather conditions in past years. The results will help you decide how hot, cold, wet, or windy it might be!

Date:

Astronomy

May. 24, 2013 Rise Set
Actual Time 5:42 AM CDT 8:51 PM CDT
Civil Twilight 5:07 AM CDT 9:27 PM CDT
Nautical Twilight 4:22 AM CDT 10:12 PM CDT
Astronomical Twilight 3:27 AM CDT 11:08 PM CDT
Moon 8:33 PM CDT (5/24) 5:17 AM CDT (5/24)
Length of Visible Light 16h 19m
Length of Day
15h 09m
Full, 100% of the Moon is Illuminated
May 24
Full
May 24
Full
May 31
Last Quarter
Jun 8
New
Jun 16
First Quarter

Hourly Weather History & Observations

Time (CDT) Temp. Windchill Dew Point Humidity Pressure Visibility Wind Dir Wind Speed Gust Speed Precip Events Conditions
12:14 AM 50.0 °F - 35.6 °F 58% 30.32 in 10.0 mi Calm Calm - N/A   Clear
12:34 AM 50.0 °F - 33.8 °F 54% 30.32 in 10.0 mi Calm Calm - N/A   Clear
12:54 AM 50.0 °F - 33.8 °F 54% 30.32 in 10.0 mi Calm Calm - N/A   Clear
1:13 AM 50.0 °F - 33.8 °F 54% 30.32 in 10.0 mi Calm Calm - N/A   Clear
1:34 AM 50.0 °F - 33.8 °F 54% 30.32 in 10.0 mi Calm Calm - N/A   Clear
1:53 AM 50.0 °F - 33.8 °F 54% 30.32 in 10.0 mi Calm Calm - N/A   Clear
2:14 AM 50.0 °F - 33.8 °F 54% 30.32 in 10.0 mi Calm Calm - N/A   Clear
2:34 AM 50.0 °F - 33.8 °F 54% 30.32 in 10.0 mi ESE 4.6 mph - N/A   Clear
2:54 AM 46.4 °F - 33.8 °F 62% 30.32 in 10.0 mi Calm Calm - N/A   Clear
3:14 AM 46.4 °F - 33.8 °F 62% 30.33 in 10.0 mi Calm Calm - N/A   Clear
3:34 AM 46.4 °F - 33.8 °F 62% 30.32 in 10.0 mi Calm Calm - N/A   Clear
3:53 AM 44.6 °F - 32.0 °F 61% 30.32 in 10.0 mi Calm Calm - N/A   Clear
4:14 AM 44.6 °F - 32.0 °F 61% 30.32 in 10.0 mi Calm Calm - N/A   Clear
4:34 AM 42.8 °F - 32.0 °F 66% 30.33 in 10.0 mi Calm Calm - N/A   Clear
4:53 AM 42.8 °F - 32.0 °F 66% 30.33 in 10.0 mi Calm Calm - N/A   Clear
5:14 AM 41.0 °F - 32.0 °F 70% 30.33 in 10.0 mi Calm Calm - N/A   Clear
5:34 AM 42.8 °F - 32.0 °F 66% 30.33 in 10.0 mi Calm Calm - N/A   Clear
5:53 AM 42.8 °F - 32.0 °F 66% 30.32 in 10.0 mi Calm Calm - N/A   Clear
6:14 AM 42.8 °F - 32.0 °F 66% 30.33 in 10.0 mi Calm Calm - N/A   Clear
6:34 AM 42.8 °F - 32.0 °F 66% 30.33 in 10.0 mi Calm Calm - N/A   Clear
6:54 AM 42.8 °F - 33.8 °F 70% 30.33 in 10.0 mi Calm Calm - N/A   Clear
7:14 AM 46.4 °F 45.2 °F 33.8 °F 62% 30.33 in 10.0 mi SE 3.5 mph - N/A   Clear
7:34 AM 50.0 °F - 35.6 °F 58% 30.32 in 10.0 mi ESE 9.2 mph - N/A   Clear
7:54 AM 50.0 °F - 33.8 °F 54% 30.33 in 10.0 mi SE 11.5 mph - N/A   Clear
8:14 AM 51.8 °F - 35.6 °F 54% 30.32 in 10.0 mi SE 11.5 mph 18.4 mph N/A   Clear
8:34 AM 53.6 °F - 37.4 °F 54% 30.32 in 10.0 mi SSE 12.7 mph - N/A   Clear
8:54 AM 53.6 °F - 35.6 °F 51% 30.32 in 10.0 mi SE 11.5 mph - N/A   Clear
9:14 AM 55.4 °F - 35.6 °F 47% 30.32 in 10.0 mi SSE 11.5 mph 18.4 mph N/A   Clear
9:34 AM 57.2 °F - 35.6 °F 44% 30.32 in 10.0 mi SE 13.8 mph 17.3 mph N/A   Clear
9:54 AM 59.0 °F - 35.6 °F 42% 30.31 in 10.0 mi SE 12.7 mph 20.7 mph N/A   Clear
10:14 AM 59.0 °F - 35.6 °F 42% 30.31 in 10.0 mi SSE 15.0 mph 20.7 mph N/A   Clear
10:34 AM 60.8 °F - 33.8 °F 36% 30.31 in 10.0 mi SSE 18.4 mph 24.2 mph N/A   Clear
10:54 AM 60.8 °F - 35.6 °F 39% 30.30 in 10.0 mi SSE 16.1 mph 24.2 mph N/A   Clear
11:13 AM 60.8 °F - 35.6 °F 39% 30.29 in 10.0 mi SSE 16.1 mph 21.9 mph N/A   Clear
11:34 AM 62.6 °F - 33.8 °F 34% 30.28 in 10.0 mi SSE 15.0 mph 23.0 mph N/A   Clear
11:54 AM 64.4 °F - 35.6 °F 34% 30.27 in 10.0 mi SSE 17.3 mph 24.2 mph N/A   Clear
12:13 PM 66.2 °F - 37.4 °F 35% 30.27 in 10.0 mi SE 18.4 mph 23.0 mph N/A   Clear
12:34 PM 68.0 °F - 35.6 °F 30% 30.26 in 10.0 mi SSE 17.3 mph 25.3 mph N/A   Clear
12:54 PM 68.0 °F - 35.6 °F 30% 30.24 in 10.0 mi SE 15.0 mph 23.0 mph N/A   Clear
1:14 PM 68.0 °F - 35.6 °F 30% 30.24 in 10.0 mi SSE 17.3 mph 25.3 mph N/A   Clear
1:33 PM 69.8 °F - 37.4 °F 31% 30.23 in 10.0 mi SSE 17.3 mph 23.0 mph N/A   Clear
1:54 PM 69.8 °F - 37.4 °F 31% 30.21 in 10.0 mi SSE 16.1 mph 26.5 mph N/A   Clear
2:14 PM 69.8 °F - 35.6 °F 28% 30.21 in 10.0 mi SSE 17.3 mph 24.2 mph N/A   Clear
2:34 PM 69.8 °F - 35.6 °F 28% 30.20 in 10.0 mi SSE 17.3 mph 25.3 mph N/A   Clear
2:54 PM 69.8 °F - 35.6 °F 28% 30.20 in 10.0 mi SSE 20.7 mph 26.5 mph N/A   Scattered Clouds
3:14 PM 69.8 °F - 35.6 °F 28% 30.20 in 10.0 mi SSE 17.3 mph 23.0 mph N/A   Overcast
3:34 PM 69.8 °F - 35.6 °F 28% 30.18 in 10.0 mi SSE 16.1 mph 24.2 mph N/A   Overcast
3:54 PM 69.8 °F - 35.6 °F 28% 30.19 in 10.0 mi SSE 15.0 mph 20.7 mph N/A   Overcast
4:13 PM 69.8 °F - 39.2 °F 33% 30.21 in 10.0 mi SSE 6.9 mph - N/A   Light Drizzle
4:34 PM 68.0 °F - 39.2 °F 35% 30.24 in 10.0 mi Calm Calm - N/A Thunderstorm Overcast
4:54 PM 68.0 °F - 37.4 °F 33% 30.23 in 10.0 mi Calm Calm - N/A   Overcast
5:13 PM 66.2 °F - 42.8 °F 43% 30.22 in 10.0 mi Calm Calm - N/A Rain , Thunderstorm Light Thunderstorms and Rain
5:34 PM 60.8 °F - 44.6 °F 55% 30.15 in 7.0 mi ESE 13.8 mph - 0.02 in Rain , Thunderstorm Rain
5:54 PM 60.8 °F - 46.4 °F 59% 30.17 in 10.0 mi Calm Calm - 0.05 in Rain Light Rain
6:13 PM 60.8 °F - 46.4 °F 59% 30.18 in 10.0 mi Calm Calm - N/A   Mostly Cloudy
6:34 PM 60.8 °F - 46.4 °F 59% 30.17 in 10.0 mi Calm Calm - N/A Thunderstorm Unknown
6:53 PM 60.8 °F - 46.4 °F 59% 30.18 in 10.0 mi Calm Calm - N/A Rain , Thunderstorm Light Thunderstorms and Rain
7:13 PM 59.0 °F - 48.2 °F 67% 30.17 in 10.0 mi Calm Calm - N/A Rain , Thunderstorm Light Thunderstorms and Rain
7:34 PM 59.0 °F - 50.0 °F 72% 30.16 in 7.0 mi Calm Calm - 0.01 in Rain , Thunderstorm Thunderstorms and Rain
7:54 PM 57.2 °F - 50.0 °F 77% 30.14 in - East 12.7 mph - 0.03 in Thunderstorm Thunderstorm
8:14 PM 57.2 °F - 50.0 °F 77% 30.14 in 10.0 mi ESE 10.4 mph - N/A Rain , Thunderstorm Light Thunderstorms and Rain
8:34 PM 57.2 °F - 50.0 °F 77% 30.14 in 10.0 mi ESE 9.2 mph 16.1 mph N/A Thunderstorm Unknown
8:54 PM 57.2 °F - 51.8 °F 82% 30.13 in 10.0 mi ESE 11.5 mph - N/A   Overcast
9:14 PM 59.0 °F - 51.8 °F 77% 30.15 in 10.0 mi SE 13.8 mph 18.4 mph N/A Rain Light Rain
9:34 PM 59.0 °F - 51.8 °F 77% 30.15 in 10.0 mi ESE 13.8 mph - N/A Thunderstorm Overcast
9:54 PM 57.2 °F - 50.0 °F 77% 30.16 in 10.0 mi ESE 13.8 mph 18.4 mph N/A   Overcast
10:14 PM 57.2 °F - 50.0 °F 77% 30.17 in 10.0 mi ESE 13.8 mph 19.6 mph N/A   Overcast
10:34 PM 57.2 °F - 50.0 °F 77% 30.17 in 10.0 mi ESE 12.7 mph 20.7 mph N/A   Overcast
10:54 PM 57.2 °F - 50.0 °F 77% 30.18 in 10.0 mi ESE 15.0 mph - N/A   Overcast
11:13 PM 57.2 °F - 50.0 °F 77% 30.18 in 10.0 mi ESE 15.0 mph - N/A   Overcast
11:34 PM 57.2 °F - 50.0 °F 77% 30.19 in 10.0 mi ESE 13.8 mph 18.4 mph N/A   Overcast
11:54 PM 57.2 °F - 50.0 °F 77% 30.19 in 10.0 mi ESE 11.5 mph 19.6 mph N/A   Overcast